Location: Kellogg
(38.0159°N, 90.0546°W)
Time: 18:12:43
(UTC+00:00)

Hubble Space Telescope - Pass Details

Date: 25 January 2026
Orbit: 478 x 480 km, 28.5° (Epoch: 8 February)

Event Time Altitude Azimuth Distance (km) Brightness Sun altitude
Rises 00:41:45 0° 229° (SW) 2,511 5.3 -17.2°
Reaches altitude 10° 00:44:39 10° 206° (SSW) 1,635 3.7 -17.8°
Maximum altitude 00:46:53 15° 169° (S) 1,346 2.8 -18.2°
Enters shadow 00:47:48 14° 152° (SSE) 1,400 2.7 -18.4°
